owner,sensor,date,latitude,longitude,vertical_datum,sea_water_practical_salinity,qcFlag 
DISL,ioos:station:DISL:CATA:1,2017-07-01T00:00:00Z,30.3085,-88.1395,2.372,2.24,1111122 
DISL,ioos:station:DISL:CATA:1,2017-07-01T00:30:00Z,30.3085,-88.1395,2.362,2.2,1111122 
DISL,ioos:station:DISL:CATA:1,2017-07-01T01:00:00Z,30.3085,-88.1395,2.347,2.19,1111122 
DISL,ioos:station:DISL:CATA:1,2017-07-01T01:30:00Z,30.3085,-88.1395,2.334,2.14,1111122 
DISL,ioos:station:DISL:CATA:1,2017-07-01T02:00:00Z,30.3085,-88.1395,2.321,2.12,1111122 
DISL,ioos:station:DISL:CATA:1,2017-07-01T02:30:00Z,30.3085,-88.1395,2.312,2.01,1111122 
DISL,ioos:station:DISL:CATA:1,2017-07-01T03:00:00Z,30.3085,-88.1395,2.293,2.02,1111122 
DISL,ioos:station:DISL:CATA:1,2017-07-01T03:30:00Z,30.3085,-88.1395,2.277,2.03,1111122 
DISL,ioos:station:DISL:CATA:1,2017-07-01T04:00:00Z,30.3085,-88.1395,2.271,2.04,1111122 
DISL,ioos:station:DISL:CATA:1,2017-07-01T04:30:00Z,30.3085,-88.1395,2.278,2.06,1111122 
DISL,ioos:station:DISL:CATA:1,2017-07-01T05:00:00Z,30.3085,-88.1395,2.295,2.05,1111122 
DISL,ioos:station:DISL:CATA:1,2017-07-01T05:30:00Z,30.3085,-88.1395,2.315,1.98,1111122 
DISL,ioos:station:DISL:CATA:1,2017-07-01T06:00:00Z,30.3085,-88.1395,2.352,1.95,1111122 
DISL,ioos:station:DISL:CATA:1,2017-07-01T06:30:00Z,30.3085,-88.1395,2.399,1.98,1111122 
DISL,ioos:station:DISL:CATA:1,2017-07-01T07:00:00Z,30.3085,-88.1395,2.397,1.97,1111122 
DISL,ioos:station:DISL:CATA:1,2017-07-01T07:30:00Z,30.3085,-88.1395,2.397,1.95,1111122 
DISL,ioos:station:DISL:CATA:1,2017-07-01T08:00:00Z,30.3085,-88.1395,2.42,1.96,1111122 
DISL,ioos:station:DISL:CATA:1,2017-07-01T08:30:00Z,30.3085,-88.1395,2.433,1.98,1111122 
DISL,ioos:station:DISL:CATA:1,2017-07-01T09:00:00Z,30.3085,-88.1395,2.45,2.02,1111122 
DISL,ioos:station:DISL:CATA:1,2017-07-01T09:30:00Z,30.3085,-88.1395,2.433,2.03,1111122 
DISL,ioos:station:DISL:CATA:1,2017-07-01T10:00:00Z,30.3085,-88.1395,2.433,2.08,1111122 
DISL,ioos:station:DISL:CATA:1,2017-07-01T10:30:00Z,30.3085,-88.1395,2.447,2.2,1111122 
DISL,ioos:station:DISL:CATA:1,2017-07-01T11:00:00Z,30.3085,-88.1395,2.444,2.29,1111122 
DISL,ioos:station:DISL:CATA:1,2017-07-01T11:30:00Z,30.3085,-88.1395,2.438,2.31,1111122 
DISL,ioos:station:DISL:CATA:1,2017-07-01T12:00:00Z,30.3085,-88.1395,2.438,2.13,1111122 
DISL,ioos:station:DISL:CATA:1,2017-07-01T12:30:00Z,30.3085,-88.1395,2.426,2.06,1111122 
DISL,ioos:station:DISL:CATA:1,2017-07-01T13:00:00Z,30.3085,-88.1395,2.426,1.97,1111122 
DISL,ioos:station:DISL:CATA:1,2017-07-01T13:30:00Z,30.3085,-88.1395,2.416,2.04,1111122 
DISL,ioos:station:DISL:CATA:1,2017-07-01T14:00:00Z,30.3085,-88.1395,2.415,2.17,1111122 
DISL,ioos:station:DISL:CATA:1,2017-07-01T14:30:00Z,30.3085,-88.1395,2.421,2.19,1111122 
DISL,ioos:station:DISL:CATA:1,2017-07-01T15:00:00Z,30.3085,-88.1395,2.424,2.18,1111122 
DISL,ioos:station:DISL:CATA:1,2017-07-01T15:30:00Z,30.3085,-88.1395,2.386,2.16,1111122 
DISL,ioos:station:DISL:CATA:1,2017-07-01T16:00:00Z,30.3085,-88.1395,2.393,2.15,1111122 
DISL,ioos:station:DISL:CATA:1,2017-07-01T16:30:00Z,30.3085,-88.1395,2.356,2.14,1111122 
DISL,ioos:station:DISL:CATA:1,2017-07-01T17:00:00Z,30.3085,-88.1395,2.3,2.12,1111122 
DISL,ioos:station:DISL:CATA:1,2017-07-01T17:30:00Z,30.3085,-88.1395,2.315,2.1,1111122 
DISL,ioos:station:DISL:CATA:1,2017-07-01T18:00:00Z,30.3085,-88.1395,2.334,2.27,1111122 
DISL,ioos:station:DISL:CATA:1,2017-07-01T18:30:00Z,30.3085,-88.1395,2.295,2.28,1111122 
DISL,ioos:station:DISL:CATA:1,2017-07-01T19:00:00Z,30.3085,-88.1395,2.291,2.21,1111122 
DISL,ioos:station:DISL:CATA:1,2017-07-01T19:30:00Z,30.3085,-88.1395,2.283,2.17,1111122 
DISL,ioos:station:DISL:CATA:1,2017-07-01T20:00:00Z,30.3085,-88.1395,2.276,2.15,1111122 
DISL,ioos:station:DISL:CATA:1,2017-07-01T20:30:00Z,30.3085,-88.1395,2.281,2.13,1111122 
DISL,ioos:station:DISL:CATA:1,2017-07-01T21:00:00Z,30.3085,-88.1395,2.276,2.13,1111122 
DISL,ioos:station:DISL:CATA:1,2017-07-01T21:30:00Z,30.3085,-88.1395,2.276,2.13,1111122 
DISL,ioos:station:DISL:CATA:1,2017-07-01T22:00:00Z,30.3085,-88.1395,2.276,2.14,1111122 
DISL,ioos:station:DISL:CATA:1,2017-07-01T22:30:00Z,30.3085,-88.1395,2.283,2.17,1111122 
DISL,ioos:station:DISL:CATA:1,2017-07-01T23:00:00Z,30.3085,-88.1395,2.276,2.16,1111122 
DISL,ioos:station:DISL:CATA:1,2017-07-01T23:30:00Z,30.3085,-88.1395,2.267,2.14,1111122 
DISL,ioos:station:DISL:CATA:1,2017-07-02T00:00:00Z,30.3085,-88.1395,2.269,2.19,1111122 
DISL,ioos:station:DISL:CATA:1,2017-07-02T00:30:00Z,30.3085,-88.1395,2.279,2.18,1111122 
DISL,ioos:station:DISL:CATA:1,2017-07-02T01:00:00Z,30.3085,-88.1395,2.286,2.14,1111122 
DISL,ioos:station:DISL:CATA:1,2017-07-02T01:30:00Z,30.3085,-88.1395,2.293,2.15,1111122 
DISL,ioos:station:DISL:CATA:1,2017-07-02T02:00:00Z,30.3085,-88.1395,2.305,2.17,1111122 
DISL,ioos:station:DISL:CATA:1,2017-07-02T02:30:00Z,30.3085,-88.1395,2.308,2.18,1111122 
DISL,ioos:station:DISL:CATA:1,2017-07-02T03:00:00Z,30.3085,-88.1395,2.31,2.18,1111122 
DISL,ioos:station:DISL:CATA:1,2017-07-02T03:30:00Z,30.3085,-88.1395,2.32,2.17,1111122 
DISL,ioos:station:DISL:CATA:1,2017-07-02T04:00:00Z,30.3085,-88.1395,2.31,2.14,1111122 
DISL,ioos:station:DISL:CATA:1,2017-07-02T04:30:00Z,30.3085,-88.1395,2.29,2.16,1111122 
DISL,ioos:station:DISL:CATA:1,2017-07-02T05:00:00Z,30.3085,-88.1395,2.281,2.19,1111122 
DISL,ioos:station:DISL:CATA:1,2017-07-02T05:30:00Z,30.3085,-88.1395,2.276,2.17,1111122 
DISL,ioos:station:DISL:CATA:1,2017-07-02T06:00:00Z,30.3085,-88.1395,2.285,2.15,1111122 
DISL,ioos:station:DISL:CATA:1,2017-07-02T06:30:00Z,30.3085,-88.1395,2.291,2.23,1111122 
DISL,ioos:station:DISL:CATA:1,2017-07-02T07:00:00Z,30.3085,-88.1395,2.273,2.21,1111122 
DISL,ioos:station:DISL:CATA:1,2017-07-02T07:30:00Z,30.3085,-88.1395,2.268,2.18,1111122 
DISL,ioos:station:DISL:CATA:1,2017-07-02T08:00:00Z,30.3085,-88.1395,2.313,2.15,1111122 
DISL,ioos:station:DISL:CATA:1,2017-07-02T08:30:00Z,30.3085,-88.1395,2.345,2.14,1111122 
DISL,ioos:station:DISL:CATA:1,2017-07-02T09:00:00Z,30.3085,-88.1395,2.377,2.14,1111122 
DISL,ioos:station:DISL:CATA:1,2017-07-02T09:30:00Z,30.3085,-88.1395,2.376,2.15,1111122 
DISL,ioos:station:DISL:CATA:1,2017-07-02T10:00:00Z,30.3085,-88.1395,2.388,2.15,1111122 
DISL,ioos:station:DISL:CATA:1,2017-07-02T10:30:00Z,30.3085,-88.1395,2.396,2.14,1111122 
DISL,ioos:station:DISL:CATA:1,2017-07-02T11:00:00Z,30.3085,-88.1395,2.406,2.15,1111122 
DISL,ioos:station:DISL:CATA:1,2017-07-02T11:30:00Z,30.3085,-88.1395,2.419,2.17,1111122 
DISL,ioos:station:DISL:CATA:1,2017-07-02T12:00:00Z,30.3085,-88.1395,2.423,2.19,1111122 
DISL,ioos:station:DISL:CATA:1,2017-07-02T12:30:00Z,30.3085,-88.1395,2.437,2.22,1111122 
DISL,ioos:station:DISL:CATA:1,2017-07-02T13:00:00Z,30.3085,-88.1395,2.453,2.23,1111122 
DISL,ioos:station:DISL:CATA:1,2017-07-02T13:30:00Z,30.3085,-88.1395,2.463,2.21,1111122 
DISL,ioos:station:DISL:CATA:1,2017-07-02T14:00:00Z,30.3085,-88.1395,2.468,2.18,1111122 
DISL,ioos:station:DISL:CATA:1,2017-07-02T14:30:00Z,30.3085,-88.1395,2.475,2.14,1111122 
DISL,ioos:station:DISL:CATA:1,2017-07-02T15:00:00Z,30.3085,-88.1395,2.454,2.16,1111122 
DISL,ioos:station:DISL:CATA:1,2017-07-02T15:30:00Z,30.3085,-88.1395,2.44,2.24,1111122 
DISL,ioos:station:DISL:CATA:1,2017-07-02T16:00:00Z,30.3085,-88.1395,2.408,2.28,1111122 
DISL,ioos:station:DISL:CATA:1,2017-07-02T16:30:00Z,30.3085,-88.1395,2.392,2.26,1111122 
DISL,ioos:station:DISL:CATA:1,2017-07-02T17:00:00Z,30.3085,-88.1395,2.364,2.27,1111122 
DISL,ioos:station:DISL:CATA:1,2017-07-02T17:30:00Z,30.3085,-88.1395,2.344,2.2,1111122 
DISL,ioos:station:DISL:CATA:1,2017-07-02T18:00:00Z,30.3085,-88.1395,2.324,2.2,1111122 
DISL,ioos:station:DISL:CATA:1,2017-07-02T18:30:00Z,30.3085,-88.1395,2.298,2.15,1111122 
DISL,ioos:station:DISL:CATA:1,2017-07-02T19:00:00Z,30.3085,-88.1395,2.283,2.15,1111122 
DISL,ioos:station:DISL:CATA:1,2017-07-02T19:30:00Z,30.3085,-88.1395,2.259,2.14,1111122 
DISL,ioos:station:DISL:CATA:1,2017-07-02T20:00:00Z,30.3085,-88.1395,2.255,2.15,1111122 
DISL,ioos:station:DISL:CATA:1,2017-07-02T20:30:00Z,30.3085,-88.1395,2.242,2.15,1111122 
DISL,ioos:station:DISL:CATA:1,2017-07-02T21:00:00Z,30.3085,-88.1395,2.241,2.21,1111122 
DISL,ioos:station:DISL:CATA:1,2017-07-02T21:30:00Z,30.3085,-88.1395,2.234,2.31,1111122 
DISL,ioos:station:DISL:CATA:1,2017-07-02T22:00:00Z,30.3085,-88.1395,2.215,2.35,1111122 
DISL,ioos:station:DISL:CATA:1,2017-07-02T22:30:00Z,30.3085,-88.1395,2.21,2.36,1111122 
DISL,ioos:station:DISL:CATA:1,2017-07-02T23:00:00Z,30.3085,-88.1395,2.202,2.36,1111122 
DISL,ioos:station:DISL:CATA:1,2017-07-02T23:30:00Z,30.3085,-88.1395,2.203,2.37,1111122 
DISL,ioos:station:DISL:CATA:1,2017-07-03T00:00:00Z,30.3085,-88.1395,2.202,2.39,1111122 
DISL,ioos:station:DISL:CATA:1,2017-07-03T00:30:00Z,30.3085,-88.1395,2.203,2.41,1111122 
DISL,ioos:station:DISL:CATA:1,2017-07-03T01:00:00Z,30.3085,-88.1395,2.201,2.42,1111122 
DISL,ioos:station:DISL:CATA:1,2017-07-03T01:30:00Z,30.3085,-88.1395,2.207,2.41,1111122 
DISL,ioos:station:DISL:CATA:1,2017-07-03T02:00:00Z,30.3085,-88.1395,2.223,2.39,1111122 
DISL,ioos:station:DISL:CATA:1,2017-07-03T02:30:00Z,30.3085,-88.1395,2.233,2.37,1111122 
DISL,ioos:station:DISL:CATA:1,2017-07-03T03:00:00Z,30.3085,-88.1395,2.243,2.36,1111122 
DISL,ioos:station:DISL:CATA:1,2017-07-03T03:30:00Z,30.3085,-88.1395,2.271,2.34,1111122 
DISL,ioos:station:DISL:CATA:1,2017-07-03T04:00:00Z,30.3085,-88.1395,2.272,2.32,1111122 
DISL,ioos:station:DISL:CATA:1,2017-07-03T04:30:00Z,30.3085,-88.1395,2.276,2.32,1111122 
DISL,ioos:station:DISL:CATA:1,2017-07-03T05:00:00Z,30.3085,-88.1395,2.287,2.38,1111122 
DISL,ioos:station:DISL:CATA:1,2017-07-03T05:30:00Z,30.3085,-88.1395,2.281,2.38,1111122 
DISL,ioos:station:DISL:CATA:1,2017-07-03T06:00:00Z,30.3085,-88.1395,2.295,2.38,1111122 
DISL,ioos:station:DISL:CATA:1,2017-07-03T06:30:00Z,30.3085,-88.1395,2.301,2.39,1111122 
DISL,ioos:station:DISL:CATA:1,2017-07-03T07:00:00Z,30.3085,-88.1395,2.309,2.4,1111122 
DISL,ioos:station:DISL:CATA:1,2017-07-03T07:30:00Z,30.3085,-88.1395,2.327,2.41,1111122 
DISL,ioos:station:DISL:CATA:1,2017-07-03T08:00:00Z,30.3085,-88.1395,2.346,2.37,1111122 
DISL,ioos:station:DISL:CATA:1,2017-07-03T08:30:00Z,30.3085,-88.1395,2.361,2.35,1111122 
DISL,ioos:station:DISL:CATA:1,2017-07-03T09:00:00Z,30.3085,-88.1395,2.39,2.37,1111122 
DISL,ioos:station:DISL:CATA:1,2017-07-03T09:30:00Z,30.3085,-88.1395,2.405,2.35,1111122 
DISL,ioos:station:DISL:CATA:1,2017-07-03T10:00:00Z,30.3085,-88.1395,2.423,2.36,1111122 
DISL,ioos:station:DISL:CATA:1,2017-07-03T10:30:00Z,30.3085,-88.1395,2.437,2.4,1111122 
DISL,ioos:station:DISL:CATA:1,2017-07-03T11:00:00Z,30.3085,-88.1395,2.454,2.43,1111122 
DISL,ioos:station:DISL:CATA:1,2017-07-03T11:30:00Z,30.3085,-88.1395,2.456,2.27,1111122 
DISL,ioos:station:DISL:CATA:1,2017-07-03T12:00:00Z,30.3085,-88.1395,2.466,2.21,1111122 
DISL,ioos:station:DISL:CATA:1,2017-07-03T12:30:00Z,30.3085,-88.1395,2.465,2.21,1111122 
DISL,ioos:station:DISL:CATA:1,2017-07-03T13:00:00Z,30.3085,-88.1395,2.463,2.31,1111122 
DISL,ioos:station:DISL:CATA:1,2017-07-03T13:30:00Z,30.3085,-88.1395,2.456,2.49,1111122 
DISL,ioos:station:DISL:CATA:1,2017-07-03T14:00:00Z,30.3085,-88.1395,2.458,2.38,1111122 
DISL,ioos:station:DISL:CATA:1,2017-07-03T14:30:00Z,30.3085,-88.1395,2.453,2.4,1111122 
DISL,ioos:station:DISL:CATA:1,2017-07-03T15:00:00Z,30.3085,-88.1395,2.453,2.42,1111122 
DISL,ioos:station:DISL:CATA:1,2017-07-03T15:30:00Z,30.3085,-88.1395,2.439,2.41,1111122 
DISL,ioos:station:DISL:CATA:1,2017-07-03T16:00:00Z,30.3085,-88.1395,2.407,2.38,1111122 
DISL,ioos:station:DISL:CATA:1,2017-07-03T16:30:00Z,30.3085,-88.1395,2.387,2.38,1111122 
DISL,ioos:station:DISL:CATA:1,2017-07-03T17:00:00Z,30.3085,-88.1395,2.36,2.38,1111122 
DISL,ioos:station:DISL:CATA:1,2017-07-03T17:30:00Z,30.3085,-88.1395,2.333,2.37,1111122 
DISL,ioos:station:DISL:CATA:1,2017-07-03T18:00:00Z,30.3085,-88.1395,2.301,2.37,1111122 
DISL,ioos:station:DISL:CATA:1,2017-07-03T18:30:00Z,30.3085,-88.1395,2.274,2.36,1111122 
DISL,ioos:station:DISL:CATA:1,2017-07-03T19:00:00Z,30.3085,-88.1395,2.26,2.37,1111122 
DISL,ioos:station:DISL:CATA:1,2017-07-03T19:30:00Z,30.3085,-88.1395,2.23,2.37,1111122 
DISL,ioos:station:DISL:CATA:1,2017-07-03T20:00:00Z,30.3085,-88.1395,2.215,2.3,1111122 
DISL,ioos:station:DISL:CATA:1,2017-07-03T20:30:00Z,30.3085,-88.1395,2.2,2.17,1111122 
DISL,ioos:station:DISL:CATA:1,2017-07-03T21:00:00Z,30.3085,-88.1395,2.189,2.09,1111122 
DISL,ioos:station:DISL:CATA:1,2017-07-03T21:30:00Z,30.3085,-88.1395,2.181,2.02,1111122 
DISL,ioos:station:DISL:CATA:1,2017-07-03T22:00:00Z,30.3085,-88.1395,2.165,1.99,1111122 
DISL,ioos:station:DISL:CATA:1,2017-07-03T22:30:00Z,30.3085,-88.1395,2.157,1.99,1111122 
DISL,ioos:station:DISL:CATA:1,2017-07-03T23:00:00Z,30.3085,-88.1395,2.156,1.97,1111122 
DISL,ioos:station:DISL:CATA:1,2017-07-03T23:30:00Z,30.3085,-88.1395,2.158,1.91,1111122 
DISL,ioos:station:DISL:CATA:1,2017-07-04T00:00:00Z,30.3085,-88.1395,2.158,1.89,1111122 
DISL,ioos:station:DISL:CATA:1,2017-07-04T00:30:00Z,30.3085,-88.1395,2.149,1.88,1111122 
DISL,ioos:station:DISL:CATA:1,2017-07-04T01:00:00Z,30.3085,-88.1395,2.165,1.85,1111122 
DISL,ioos:station:DISL:CATA:1,2017-07-04T01:30:00Z,30.3085,-88.1395,2.174,1.83,1111122 
DISL,ioos:station:DISL:CATA:1,2017-07-04T02:00:00Z,30.3085,-88.1395,2.196,1.82,1111122 
DISL,ioos:station:DISL:CATA:1,2017-07-04T02:30:00Z,30.3085,-88.1395,2.207,1.78,1111122 
DISL,ioos:station:DISL:CATA:1,2017-07-04T03:00:00Z,30.3085,-88.1395,2.23,1.66,1111122 
DISL,ioos:station:DISL:CATA:1,2017-07-04T03:30:00Z,30.3085,-88.1395,2.239,1.64,1111122 
DISL,ioos:station:DISL:CATA:1,2017-07-04T04:00:00Z,30.3085,-88.1395,2.247,1.64,1111122 
DISL,ioos:station:DISL:CATA:1,2017-07-04T04:30:00Z,30.3085,-88.1395,2.267,1.66,1111122 
DISL,ioos:station:DISL:CATA:1,2017-07-04T05:00:00Z,30.3085,-88.1395,2.272,1.74,1111122 
DISL,ioos:station:DISL:CATA:1,2017-07-04T05:30:00Z,30.3085,-88.1395,2.293,1.67,1111122 
DISL,ioos:station:DISL:CATA:1,2017-07-04T06:00:00Z,30.3085,-88.1395,2.305,1.65,1111122 
DISL,ioos:station:DISL:CATA:1,2017-07-04T06:30:00Z,30.3085,-88.1395,2.324,1.7,1111122 
DISL,ioos:station:DISL:CATA:1,2017-07-04T07:00:00Z,30.3085,-88.1395,2.345,1.78,1111122 
DISL,ioos:station:DISL:CATA:1,2017-07-04T07:30:00Z,30.3085,-88.1395,2.378,1.86,1111122 
DISL,ioos:station:DISL:CATA:1,2017-07-04T08:00:00Z,30.3085,-88.1395,2.406,1.89,1111122 
DISL,ioos:station:DISL:CATA:1,2017-07-04T08:30:00Z,30.3085,-88.1395,2.428,1.98,1111122 
DISL,ioos:station:DISL:CATA:1,2017-07-04T09:00:00Z,30.3085,-88.1395,2.447,2.0,1111122 
DISL,ioos:station:DISL:CATA:1,2017-07-04T09:30:00Z,30.3085,-88.1395,2.463,2.0,1111122 
DISL,ioos:station:DISL:CATA:1,2017-07-04T10:00:00Z,30.3085,-88.1395,2.48,2.1,1111122 
DISL,ioos:station:DISL:CATA:1,2017-07-04T10:30:00Z,30.3085,-88.1395,2.494,2.25,1111122 
DISL,ioos:station:DISL:CATA:1,2017-07-04T11:00:00Z,30.3085,-88.1395,2.498,2.4,1111122 
DISL,ioos:station:DISL:CATA:1,2017-07-04T11:30:00Z,30.3085,-88.1395,2.5,2.49,1111122 
DISL,ioos:station:DISL:CATA:1,2017-07-04T12:00:00Z,30.3085,-88.1395,2.507,2.55,1111122 
DISL,ioos:station:DISL:CATA:1,2017-07-04T12:30:00Z,30.3085,-88.1395,2.502,2.54,1111122 
DISL,ioos:station:DISL:CATA:1,2017-07-04T13:00:00Z,30.3085,-88.1395,2.495,2.5,1111122 
DISL,ioos:station:DISL:CATA:1,2017-07-04T13:30:00Z,30.3085,-88.1395,2.499,2.2,1111122 
DISL,ioos:station:DISL:CATA:1,2017-07-04T14:00:00Z,30.3085,-88.1395,2.502,2.69,1111122 
DISL,ioos:station:DISL:CATA:1,2017-07-04T14:30:00Z,30.3085,-88.1395,2.485,2.5,1111122 
DISL,ioos:station:DISL:CATA:1,2017-07-04T15:00:00Z,30.3085,-88.1395,2.477,2.19,1111122 
DISL,ioos:station:DISL:CATA:1,2017-07-04T15:30:00Z,30.3085,-88.1395,2.472,2.0,1111122 
DISL,ioos:station:DISL:CATA:1,2017-07-04T16:00:00Z,30.3085,-88.1395,2.459,1.94,1111122 
DISL,ioos:station:DISL:CATA:1,2017-07-04T16:30:00Z,30.3085,-88.1395,2.435,1.75,1111122 
DISL,ioos:station:DISL:CATA:1,2017-07-04T17:00:00Z,30.3085,-88.1395,2.399,1.67,1111122 
DISL,ioos:station:DISL:CATA:1,2017-07-04T17:30:00Z,30.3085,-88.1395,2.368,1.72,1111122 
DISL,ioos:station:DISL:CATA:1,2017-07-04T18:00:00Z,30.3085,-88.1395,2.329,1.69,1111122 
DISL,ioos:station:DISL:CATA:1,2017-07-04T18:30:00Z,30.3085,-88.1395,2.298,1.76,1111122 
DISL,ioos:station:DISL:CATA:1,2017-07-04T19:00:00Z,30.3085,-88.1395,2.268,1.97,1111122 
DISL,ioos:station:DISL:CATA:1,2017-07-04T19:30:00Z,30.3085,-88.1395,2.232,2.14,1111122 
DISL,ioos:station:DISL:CATA:1,2017-07-04T20:00:00Z,30.3085,-88.1395,2.209,2.13,1111122 
DISL,ioos:station:DISL:CATA:1,2017-07-04T20:30:00Z,30.3085,-88.1395,2.183,1.96,1111122 
DISL,ioos:station:DISL:CATA:1,2017-07-04T21:00:00Z,30.3085,-88.1395,2.177,1.85,1111122 
DISL,ioos:station:DISL:CATA:1,2017-07-04T21:30:00Z,30.3085,-88.1395,2.157,1.75,1111122 
DISL,ioos:station:DISL:CATA:1,2017-07-04T22:00:00Z,30.3085,-88.1395,2.138,1.67,1111122 
DISL,ioos:station:DISL:CATA:1,2017-07-04T22:30:00Z,30.3085,-88.1395,2.117,1.64,1111122 
DISL,ioos:station:DISL:CATA:1,2017-07-04T23:00:00Z,30.3085,-88.1395,2.118,1.6,1111122 
DISL,ioos:station:DISL:CATA:1,2017-07-04T23:30:00Z,30.3085,-88.1395,2.12,1.57,1111122 
DISL,ioos:station:DISL:CATA:1,2017-07-05T00:00:00Z,30.3085,-88.1395,2.124,1.59,1111122 
DISL,ioos:station:DISL:CATA:1,2017-07-05T00:30:00Z,30.3085,-88.1395,2.136,1.55,1111122 
DISL,ioos:station:DISL:CATA:1,2017-07-05T01:00:00Z,30.3085,-88.1395,2.141,1.48,1111122 
DISL,ioos:station:DISL:CATA:1,2017-07-05T01:30:00Z,30.3085,-88.1395,2.151,1.41,1111122 
DISL,ioos:station:DISL:CATA:1,2017-07-05T02:00:00Z,30.3085,-88.1395,2.164,1.33,1111122 
DISL,ioos:station:DISL:CATA:1,2017-07-05T02:30:00Z,30.3085,-88.1395,2.183,1.28,1111122 
DISL,ioos:station:DISL:CATA:1,2017-07-05T03:00:00Z,30.3085,-88.1395,2.212,1.23,1111122 
DISL,ioos:station:DISL:CATA:1,2017-07-05T03:30:00Z,30.3085,-88.1395,2.234,1.22,1111122 
DISL,ioos:station:DISL:CATA:1,2017-07-05T04:00:00Z,30.3085,-88.1395,2.247,1.23,1111122 
DISL,ioos:station:DISL:CATA:1,2017-07-05T04:30:00Z,30.3085,-88.1395,2.264,1.25,1111122 
DISL,ioos:station:DISL:CATA:1,2017-07-05T05:00:00Z,30.3085,-88.1395,2.282,1.29,1111122 
DISL,ioos:station:DISL:CATA:1,2017-07-05T05:30:00Z,30.3085,-88.1395,2.296,1.38,1111122 
DISL,ioos:station:DISL:CATA:1,2017-07-05T06:00:00Z,30.3085,-88.1395,2.309,1.48,1111122 
DISL,ioos:station:DISL:CATA:1,2017-07-05T06:30:00Z,30.3085,-88.1395,2.325,1.55,1111122 
DISL,ioos:station:DISL:CATA:1,2017-07-05T07:00:00Z,30.3085,-88.1395,2.341,1.59,1111122 
DISL,ioos:station:DISL:CATA:1,2017-07-05T07:30:00Z,30.3085,-88.1395,2.356,1.63,1111122 
DISL,ioos:station:DISL:CATA:1,2017-07-05T08:00:00Z,30.3085,-88.1395,2.367,1.67,1111122 
DISL,ioos:station:DISL:CATA:1,2017-07-05T08:30:00Z,30.3085,-88.1395,2.394,1.68,1111122 
DISL,ioos:station:DISL:CATA:1,2017-07-05T09:00:00Z,30.3085,-88.1395,2.427,1.7,1111122 
DISL,ioos:station:DISL:CATA:1,2017-07-05T09:30:00Z,30.3085,-88.1395,2.46,1.81,1111122 
DISL,ioos:station:DISL:CATA:1,2017-07-05T10:00:00Z,30.3085,-88.1395,2.47,1.94,1111122 
DISL,ioos:station:DISL:CATA:1,2017-07-05T10:30:00Z,30.3085,-88.1395,2.473,2.07,1111122 
DISL,ioos:station:DISL:CATA:1,2017-07-05T11:00:00Z,30.3085,-88.1395,2.513,2.05,1111122 
DISL,ioos:station:DISL:CATA:1,2017-07-05T11:30:00Z,30.3085,-88.1395,2.525,2.18,1111122 
DISL,ioos:station:DISL:CATA:1,2017-07-05T12:00:00Z,30.3085,-88.1395,2.547,2.56,1111122 
DISL,ioos:station:DISL:CATA:1,2017-07-05T12:30:00Z,30.3085,-88.1395,2.561,3.02,1111122 
DISL,ioos:station:DISL:CATA:1,2017-07-05T13:00:00Z,30.3085,-88.1395,2.559,3.32,1111122 
DISL,ioos:station:DISL:CATA:1,2017-07-05T13:30:00Z,30.3085,-88.1395,2.564,3.4,1111122 
DISL,ioos:station:DISL:CATA:1,2017-07-05T14:00:00Z,30.3085,-88.1395,2.577,3.32,1111122 
DISL,ioos:station:DISL:CATA:1,2017-07-05T14:30:00Z,30.3085,-88.1395,2.576,3.13,1111122 
DISL,ioos:station:DISL:CATA:1,2017-07-05T15:00:00Z,30.3085,-88.1395,2.572,3.05,1111122 
DISL,ioos:station:DISL:CATA:1,2017-07-05T15:30:00Z,30.3085,-88.1395,2.551,3.04,1111122 
DISL,ioos:station:DISL:CATA:1,2017-07-05T16:00:00Z,30.3085,-88.1395,2.525,3.13,1111122 
DISL,ioos:station:DISL:CATA:1,2017-07-05T16:30:00Z,30.3085,-88.1395,2.49,3.3,1111122 
DISL,ioos:station:DISL:CATA:1,2017-07-05T17:00:00Z,30.3085,-88.1395,2.457,2.9,1111122 
DISL,ioos:station:DISL:CATA:1,2017-07-05T17:30:00Z,30.3085,-88.1395,2.423,2.26,1111122 
DISL,ioos:station:DISL:CATA:1,2017-07-05T18:00:00Z,30.3085,-88.1395,2.384,1.43,1111122 
DISL,ioos:station:DISL:CATA:1,2017-07-05T18:30:00Z,30.3085,-88.1395,2.348,1.39,1111122 
DISL,ioos:station:DISL:CATA:1,2017-07-05T19:00:00Z,30.3085,-88.1395,2.319,1.41,1111122 
DISL,ioos:station:DISL:CATA:1,2017-07-05T19:30:00Z,30.3085,-88.1395,2.278,1.44,1111122 
DISL,ioos:station:DISL:CATA:1,2017-07-05T20:00:00Z,30.3085,-88.1395,2.251,1.46,1111122 
DISL,ioos:station:DISL:CATA:1,2017-07-05T20:30:00Z,30.3085,-88.1395,2.22,1.43,1111122 
DISL,ioos:station:DISL:CATA:1,2017-07-05T21:00:00Z,30.3085,-88.1395,2.193,1.52,1111122 
DISL,ioos:station:DISL:CATA:1,2017-07-05T21:30:00Z,30.3085,-88.1395,2.157,1.56,1111122 
DISL,ioos:station:DISL:CATA:1,2017-07-05T22:00:00Z,30.3085,-88.1395,2.131,1.64,1111122 
DISL,ioos:station:DISL:CATA:1,2017-07-05T22:30:00Z,30.3085,-88.1395,2.126,1.7,1111122 
DISL,ioos:station:DISL:CATA:1,2017-07-05T23:00:00Z,30.3085,-88.1395,2.111,1.73,1111122 
DISL,ioos:station:DISL:CATA:1,2017-07-05T23:30:00Z,30.3085,-88.1395,2.106,1.72,1111122 
DISL,ioos:station:DISL:CATA:1,2017-07-06T00:00:00Z,30.3085,-88.1395,2.103,1.67,1111122 
DISL,ioos:station:DISL:CATA:1,2017-07-06T00:30:00Z,30.3085,-88.1395,2.101,1.58,1111122 
DISL,ioos:station:DISL:CATA:1,2017-07-06T01:00:00Z,30.3085,-88.1395,2.106,1.42,1111122 
DISL,ioos:station:DISL:CATA:1,2017-07-06T01:30:00Z,30.3085,-88.1395,2.129,1.32,1111122 
DISL,ioos:station:DISL:CATA:1,2017-07-06T02:00:00Z,30.3085,-88.1395,2.146,1.28,1111122 
DISL,ioos:station:DISL:CATA:1,2017-07-06T02:30:00Z,30.3085,-88.1395,2.166,1.3,1111122 
DISL,ioos:station:DISL:CATA:1,2017-07-06T03:00:00Z,30.3085,-88.1395,2.179,1.3,1111122 
DISL,ioos:station:DISL:CATA:1,2017-07-06T03:30:00Z,30.3085,-88.1395,2.199,1.3,1111122 
DISL,ioos:station:DISL:CATA:1,2017-07-06T04:00:00Z,30.3085,-88.1395,2.221,1.3,1111122 
DISL,ioos:station:DISL:CATA:1,2017-07-06T04:30:00Z,30.3085,-88.1395,2.234,1.29,1111122 
DISL,ioos:station:DISL:CATA:1,2017-07-06T05:00:00Z,30.3085,-88.1395,2.25,1.3,1111122 
DISL,ioos:station:DISL:CATA:1,2017-07-06T05:30:00Z,30.3085,-88.1395,2.269,1.32,1111122 
DISL,ioos:station:DISL:CATA:1,2017-07-06T06:00:00Z,30.3085,-88.1395,2.284,1.34,1111122 
DISL,ioos:station:DISL:CATA:1,2017-07-06T06:30:00Z,30.3085,-88.1395,2.298,1.35,1111122 
DISL,ioos:station:DISL:CATA:1,2017-07-06T07:00:00Z,30.3085,-88.1395,2.314,1.37,1111122 
DISL,ioos:station:DISL:CATA:1,2017-07-06T07:30:00Z,30.3085,-88.1395,2.343,1.4,1111122 
DISL,ioos:station:DISL:CATA:1,2017-07-06T08:00:00Z,30.3085,-88.1395,2.366,1.43,1111122 
DISL,ioos:station:DISL:CATA:1,2017-07-06T08:30:00Z,30.3085,-88.1395,2.389,1.49,1111122 
DISL,ioos:station:DISL:CATA:1,2017-07-06T09:00:00Z,30.3085,-88.1395,2.407,1.52,1111122 
DISL,ioos:station:DISL:CATA:1,2017-07-06T09:30:00Z,30.3085,-88.1395,2.424,1.54,1111122 
DISL,ioos:station:DISL:CATA:1,2017-07-06T10:00:00Z,30.3085,-88.1395,2.46,1.53,1111122 
DISL,ioos:station:DISL:CATA:1,2017-07-06T10:30:00Z,30.3085,-88.1395,2.49,1.5,1111122 
DISL,ioos:station:DISL:CATA:1,2017-07-06T11:00:00Z,30.3085,-88.1395,2.514,1.48,1111122 
DISL,ioos:station:DISL:CATA:1,2017-07-06T11:30:00Z,30.3085,-88.1395,2.535,1.5,1111122 
DISL,ioos:station:DISL:CATA:1,2017-07-06T12:00:00Z,30.3085,-88.1395,2.559,1.96,1111122 
DISL,ioos:station:DISL:CATA:1,2017-07-06T12:30:00Z,30.3085,-88.1395,2.579,2.48,1111122 
DISL,ioos:station:DISL:CATA:1,2017-07-06T13:00:00Z,30.3085,-88.1395,2.59,3.13,1111122 
DISL,ioos:station:DISL:CATA:1,2017-07-06T13:30:00Z,30.3085,-88.1395,2.605,3.31,1111122 
DISL,ioos:station:DISL:CATA:1,2017-07-06T14:00:00Z,30.3085,-88.1395,2.602,3.46,1111122 
DISL,ioos:station:DISL:CATA:1,2017-07-06T14:30:00Z,30.3085,-88.1395,2.573,3.64,1111122 
DISL,ioos:station:DISL:CATA:1,2017-07-06T15:00:00Z,30.3085,-88.1395,2.565,3.73,1111122 
DISL,ioos:station:DISL:CATA:1,2017-07-06T15:30:00Z,30.3085,-88.1395,2.544,3.8,1111122 